Wind_Speed
25 20 20 22 26 21 25 29 25 19 24 23 26 31 29 30 30 33 36 33 28 33 40 41 43 48 54 57 62 63 68 69 71 72 76 82 88 93 93 94 97 98 101 97
20 25 22 19 18 26 31 29 29 25 28 24 26 32 29 29 27 24 23 25 29 32 36 40 47 52 54 59 63 65 64 72 73 73 79 81 84 92 96 98 99 103 100 98
22 24 22 28 32 31 34 34 32 27 30 27 29 36 31 32 28 23 19 21 29 35 40 45 48 53 57 60 64 66 70 73 77 84 82 81 88 91 99 103 105 104 102 97
25 25 27 31 23 22 28 31 33 32 29 33 36 41 39 34 32 28 27 28 34 39 43 46 51 55 59 64 65 69 72 77 80 83 82 81 89 93 100 103 108 103 102 96
31 30 31 24 26 27 28 29 34 33 30 35 39 40 47 42 40 34 31 35 37 40 44 50 55 59 61 63 69 71 75 79 81 84 88 86 88 95 97 108 105 109 106 99
38 32 32 29 28 29 23 25 34 37 35 33 42 40 45 42 41 33 35 35 41 46 49 51 56 60 63 67 69 72 75 79 82 85 92 96 90 95 102 104 107 111 109 103
43 35 34 33 32 28 26 24 28 33 33 35 36 38 44 42 42 39 40 40 44 48 53 56 56 60 62 64 67 71 76 81 85 88 92 97 94 94 102 105 108 115 107 100
49 43 39 38 39 38 31 32 30 30 36 31 33 38 43 43 40 39 41 43 45 51 55 57 59 61 63 66 70 73 76 80 86 93 95 97 101 97 103 107 105 116 111 101
51 42 41 36 39 43 41 39 45 40 32 31 37 39 43 40 39 43 45 49 51 54 59 63 65 67 71 71 72 74 77 81 85 93 98 98 103 101 102 109 109 115 113 104
57 52 48 40 38 45 45 43 44 46 37 36 34 41 45 42 40 42 47 49 51 53 58 61 66 69 70 72 72 77 81 84 86 90 96 102 105 108 105 109 110 115 113 106
58 53 54 49 41 43 46 48 49 42 50 43 39 44 49 47 46 48 45 47 47 57 59 60 65 65 68 72 75 80 85 90 88 91 97 103 107 108 111 111 113 115 116 107
70 65 57 55 51 44 45 49 46 50 52 44 39 48 54 48 48 50 46 49 53 58 56 61 66 69 72 74 78 80 88 93 96 93 96 100 104 109 113 118 114 119 114 111
73 70 63 58 56 53 51 50 48 53 52 46 51 54 62 53 56 53 54 56 63 60 63 63 67 70 73 77 80 83 90 92 99 98 97 105 105 110 112 118 119 118 117 114
79 74 71 68 65 63 62 58 56 59 51 57 57 65 70 64 60 58 60 60 65 64 66 69 70 74 76 80 84 87 91 95 99 101 100 103 105 110 113 117 118 119 120 121
80 77 77 77 66 65 66 66 66 64 58 55 63 66 73 73 66 68 67 62 68 68 69 70 73 77 79 85 87 88 92 95 101 101 105 104 105 107 116 118 118 122 121 116
86 82 78 74 71 71 64 63 66 64 62 62 65 60 81 73 72 72 71 68 72 70 72 71 75 78 80 87 89 91 94 95 99 100 105 105 105 110 114 117 121 124 118 113
88 85 80 80 81 78 69 66 66 67 70 72 68 70 81 74 71 72 72 71 73 74 75 74 76 79 83 88 93 89 95 96 96 101 105 106 105 108 111 116 120 119 118 116
92 87 89 85 87 84 70 71 68 67 72 74 72 74 79 74 74 73 72 73 76 78 78 79 80 82 85 90 94 93 96 95 97 102 104 106 106 108 114 116 119 120 116 117
97 96 96 94 92 81 71 71 71 74 73 77 79 83 83 79 71 73 74 73 77 78 79 83 84 86 90 93 95 95 96 96 99 102 104 105 106 109 112 113 119 121 117 116
108 102 103 99 96 85 67 77 78 80 67 81 87 87 84 80 75 75 75 77 80 81 81 84 86 90 92 94 96 95 95 98 97 100 106 105 104 108 112 114 116 118 116 114
108 108 108 104 103 84 78 76 79 78 73 84 91 88 87 85 80 75 75 79 82 82 82 86 91 91 91 95 97 95 96 98 98 100 104 105 105 109 110 113 114 116 113 108
105 106 108 107 102 84 78 82 82 83 86 90 93 91 86 84 79 77 77 82 84 82 84 90 94 92 91 95 97 96 95 97 100 100 102 105 106 109 111 114 116 116 111 113
116 107 107 108 97 91 84 83 87 82 86 93 91 88 87 82 80 78 78 83 86 88 89 94 97 94 92 96 95 98 96 98 99 100 102 105 109 110 110 111 112 113 113 111
114 114 115 111 98 94 93 86 84 90 91 90 89 90 86 81 80 81 82 85 86 90 92 94 96 95 96 96 97 98 95 98 98 101 103 106 107 109 110 111 113 113 114 113
104 114 111 111 99 97 95 94 93 95 96 92 93 89 86 84 82 83 84 85 87 90 93 94 95 95 95 96 97 97 96 97 99 101 105 108 107 108 110 111 113 113 113 111
113 104 105 105 100 100 97 99 100 99 95 94 95 92 91 86 84 85 87 85 85 87 90 93 95 94 92 95 96 96 95 96 100 101 106 109 110 110 112 114 113 114 110 111
Wind_Direction
325 314 306 302 299 315 312 305 309 293 316 304 304 306 305 311 308 300 305 316 310 309 318 329 338 336 337 338 339 339 336 339 342 339 340 337 345 347 347 345 344 336 338 338
325 321 304 320 305 321 322 324 319 299 315 309 313 311 321 325 327 323 330 326 322 325 329 334 333 336 338 339 340 338 339 342 342 343 344 345 346 346 346 346 344 343 342 339
321 320 312 302 304 320 315 313 322 307 308 310 313 309 313 328 330 335 323 322 324 328 334 334 337 338 340 339 340 340 340 342 343 344 342 346 346 347 349 350 349 347 345 342
308 323 314 313 309 324 319 319 317 318 306 307 315 312 312 318 323 333 326 327 329 336 335 338 338 338 337 339 339 341 339 339 341 342 344 346 349 348 348 352 349 348 347 345
289 303 310 294 298 317 328 328 324 317 303 303 316 316 313 316 317 325 328 331 330 333 335 338 339 339 339 340 338 338 342 339 341 342 343 348 349 350 351 352 350 351 349 348
281 289 302 283 293 303 322 328 336 321 314 308 314 307 305 312 317 332 335 335 330 333 334 336 338 341 339 339 339 338 341 341 341 343 345 347 348 351 352 354 354 350 350 348
280 284 294 282 285 295 316 310 323 329 321 315 312 297 304 308 318 328 331 331 331 331 332 335 336 337 340 339 339 340 340 341 346 343 347 347 348 349 355 355 355 353 351 349
273 276 285 291 285 281 299 305 311 320 329 314 321 310 315 317 326 327 328 327 327 329 330 331 335 335 335 338 338 338 338 341 345 348 348 347 349 351 354 354 355 355 353 351
264 274 276 281 285 286 279 292 306 310 320 312 306 310 308 321 330 336 333 330 327 330 330 332 330 330 333 331 333 337 336 339 344 348 348 348 349 354 353 352 357 356 356 353
265 267 271 272 281 280 285 287 300 306 308 312 307 301 308 311 321 331 334 332 327 333 333 337 335 337 334 333 330 334 336 338 342 346 346 348 352 355 354 353 356 356 355 352
259 266 274 270 277 281 281 279 291 295 305 306 308 301 319 319 313 316 327 327 328 333 335 338 335 334 333 333 332 333 336 337 341 345 346 348 349 352 354 355 355 356 354 353
265 263 269 272 271 274 278 282 291 292 297 302 299 299 311 312 318 324 321 321 320 329 330 334 336 333 332 332 332 333 336 336 340 345 347 346 346 352 353 355 355 358 354 352
265 263 267 268 267 268 274 279 283 289 291 293 295 296 303 303 312 317 316 322 322 327 330 329 335 332 333 331 332 332 336 337 338 345 346 346 347 349 351 354 353 354 355 352
263 261 264 266 263 268 272 275 280 288 290 288 293 293 295 299 305 310 314 314 322 322 321 327 330 330 329 330 333 332 334 336 338 342 343 343 346 346 352 352 353 354 353 351
259 261 258 262 260 262 266 273 278 286 289 289 287 296 288 297 301 305 310 309 315 320 318 324 326 329 328 330 331 332 332 335 338 340 343 345 345 343 349 349 354 354 352 351
258 257 260 260 262 266 268 270 280 281 286 286 289 298 286 296 300 303 306 310 312 315 316 322 321 324 324 329 330 332 331 333 335 339 341 343 345 343 347 350 350 352 353 352
259 256 261 261 264 265 269 275 277 278 282 286 290 289 288 297 301 303 303 307 309 310 313 317 318 321 322 325 326 330 329 331 334 338 340 341 345 344 345 346 349 351 352 350
255 257 260 261 262 267 273 272 277 281 282 282 284 286 288 293 299 299 299 304 306 308 309 311 315 318 321 324 325 328 329 329 331 335 338 340 342 343 341 345 347 351 351 348
255 259 264 260 261 266 269 273 274 278 281 284 284 282 287 291 297 299 304 304 302 304 306 308 312 313 317 321 323 325 326 328 331 334 336 339 340 344 341 344 347 349 350 348
252 257 261 261 259 268 264 272 273 276 283 281 279 279 283 291 298 299 301 303 302 302 303 306 310 312 315 318 321 322 324 327 330 333 335 337 338 339 342 342 345 347 348 348
255 256 258 259 260 260 263 265 270 274 278 268 272 279 284 291 295 297 299 303 302 300 300 303 308 312 314 317 319 318 320 325 328 332 334 335 336 336 339 343 344 346 348 349
254 255 255 257 260 259 261 261 268 269 272 274 277 281 285 288 291 294 298 299 298 297 298 301 305 309 312 315 317 314 319 322 327 330 332 334 333 334 338 340 343 345 346 348
251 253 254 255 258 258 258 262 263 267 269 271 274 277 282 286 288 292 297 298 294 295 297 300 303 307 310 312 314 312 317 321 325 328 330 330 332 333 337 338 341 343 344 346
250 253 252 254 256 257 257 261 264 264 263 265 268 273 277 282 285 289 291 292 292 294 296 301 302 303 307 309 310 312 315 320 323 327 328 328 329 331 336 338 340 342 343 344
251 253 254 255 256 260 259 258 258 259 263 265 268 270 274 280 282 285 287 288 289 293 298 299 300 302 306 307 308 310 315 318 322 324 325 326 328 332 334 337 337 341 342 343
246 253 257 256 255 253 256 259 259 262 266 265 267 270 273 275 279 281 283 286 289 292 295 296 298 300 303 304 306 309 314 317 320 323 322 324 326 331 333 335 337 339 340 341
Height
10701 10700 10699 10698 10697 10695 10692 10689 10686 10684 10681 10677 10673 10666 10664 10659 10655 10653 10649 10646 10642 10638 10634 10627 10620 10612 10603 10595 10586 10575 10565 10554 10542 10527 10511 10496 10477 10457 10439 10418 10395 10371 10344 10320
10696 10695 10695 10693 10692 10690 10688 10685 10683 10680 10676 10671 10668 10659 10657 10655 10650 10646 10643 10641 10637 10633 10627 10621 10613 10605 10597 10588 10578 10567 10557 10546 10533 10518 10505 10487 10469 10451 10432 10407 10379 10354 10333 10307
10692 10691 10690 10689 10687 10686 10683 10681 10678 10675 10671 10666 10662 10652 10651 10651 10647 10642 10637 10634 10630 10626 10620 10614 10607 10598 10591 10581 10572 10561 10550 10537 10525 10511 10495 10478 10460 10437 10410 10385 10365 10348 10323 10298
10686 10686 10685 10684 10682 10680 10678 10675 10673 10670 10666 10661 10657 10648 10645 10646 10644 10639 10634 10630 10623 10618 10613 10607 10600 10592 10583 10575 10565 10554 10543 10530 10516 10502 10486 10466 10450 10429 10408 10385 10359 10333 10311 10292
10680 10679 10679 10678 10676 10674 10672 10670 10668 10665 10662 10656 10652 10645 10637 10638 10638 10636 10629 10625 10618 10611 10606 10600 10593 10585 10576 10568 10558 10547 10535 10522 10508 10495 10478 10459 10441 10420 10397 10374 10345 10319 10296 10274
10674 10673 10672 10671 10670 10669 10666 10665 10664 10661 10658 10653 10648 10641 10634 10633 10632 10630 10625 10620 10612 10606 10600 10594 10587 10579 10570 10561 10551 10540 10529 10515 10501 10487 10470 10452 10432 10411 10388 10364 10336 10312 10290 10267
10666 10666 10665 10665 10664 10662 10661 10659 10659 10656 10652 10648 10642 10634 10629 10628 10628 10626 10621 10614 10606 10600 10594 10587 10580 10573 10564 10554 10544 10534 10521 10509 10495 10479 10462 10445 10426 10404 10382 10359 10335 10312 10286 10264
10659 10658 10658 10656 10657 10656 10655 10652 10651 10651 10647 10644 10635 10629 10624 10626 10625 10620 10616 10609 10602 10595 10589 10582 10574 10566 10558 10548 10537 10526 10514 10501 10487 10471 10454 10436 10419 10397 10375 10353 10326 10305 10281 10261
10647 10650 10649 10648 10648 10648 10647 10645 10645 10645 10642 10639 10632 10623 10618 10621 10619 10614 10608 10602 10597 10591 10584 10577 10569 10560 10551 10542 10531 10519 10506 10493 10479 10462 10447 10428 10409 10387 10367 10347 10320 10298 10275 10253
10639 10638 10639 10639 10639 10637 10640 10638 10637 10636 10636 10632 10626 10616 10616 10613 10610 10607 10603 10596 10590 10586 10579 10571 10562 10553 10544 10534 10524 10512 10499 10485 10469 10452 10439 10421 10401 10381 10361 10340 10314 10289 10268 10247
10625 10628 10630 10630 10629 10629 10630 10629 10629 10628 10627 10625 10620 10605 10610 10607 10604 10600 10593 10589 10583 10578 10571 10563 10555 10546 10536 10526 10516 10503 10490 10476 10462 10446 10431 10412 10395 10375 10353 10332 10310 10286 10263 10242
10609 10615 10620 10619 10619 10619 10620 10619 10620 10620 10620 10617 10611 10597 10604 10601 10598 10594 10588 10582 10575 10570 10562 10555 10547 10538 10528 10518 10506 10495 10483 10468 10455 10440 10423 10406 10387 10367 10348 10328 10304 10281 10258 10237
10593 10603 10605 10608 10607 10606 10608 10608 10609 10611 10611 10610 10606 10593 10591 10591 10591 10587 10579 10574 10566 10560 10552 10545 10538 10528 10520 10509 10498 10486 10475 10461 10447 10432 10414 10398 10381 10360 10340 10321 10300 10278 10255 10232
10573 10585 10590 10594 10592 10593 10596 10596 10599 10599 10603 10599 10599 10590 10576 10582 10583 10580 10573 10565 10557 10550 10542 10536 10528 10519 10510 10500 10490 10478 10466 10452 10438 10423 10408 10393 10374 10354 10334 10314 10294 10274 10251 10229
10557 10565 10570 10573 10575 10580 10585 10586 10588 10590 10589 10588 10583 10583 10561 10567 10571 10569 10565 10558 10550 10542 10533 10527 10518 10509 10500 10490 10481 10469 10457 10443 10428 10416 10402 10385 10366 10347 10327 10311 10288 10271 10248 10225
10542 10549 10551 10556 10558 10563 10571 10578 10580 10580 10575 10574 10569 10575 10541 10556 10559 10555 10552 10547 10538 10531 10522 10516 10508 10500 10491 10481 10470 10460 10446 10435 10421 10408 10394 10378 10358 10338 10322 10305 10285 10267 10245 10223
10523 10533 10535 10541 10538 10542 10563 10569 10566 10567 10564 10557 10560 10554 10533 10546 10548 10545 10539 10536 10529 10520 10513 10505 10497 10490 10481 10472 10461 10450 10437 10425 10412 10400 10386 10369 10351 10334 10317 10300 10280 10261 10241 10219
10509 10514 10514 10522 10518 10528 10560 10553 10554 10553 10547 10540 10543 10535 10526 10534 10537 10532 10526 10524 10518 10509 10502 10494 10486 10478 10471 10462 10451 10441 10429 10417 10404 10391 10378 10362 10344 10327 10310 10293 10275 10257 10237 10216
10490 10492 10494 10497 10505 10522 10542 10543 10538 10536 10537 10528 10521 10512 10513 10520 10525 10519 10515 10513 10503 10498 10491 10483 10476 10467 10460 10452 10442 10431 10420 10409 10396 10381 10368 10354 10337 10320 10304 10286 10268 10251 10232 10211
10466 10470 10472 10485 10484 10506 10538 10519 10519 10517 10534 10509 10492 10493 10497 10504 10510 10506 10500 10497 10492 10486 10478 10471 10464 10456 10448 10440 10430 10420 10410 10397 10387 10373 10359 10345 10329 10314 10297 10280 10263 10246 10225 10207
10444 10450 10455 10460 10460 10495 10512 10505 10500 10502 10517 10485 10474 10485 10489 10491 10493 10491 10486 10482 10476 10472 10465 10458 10453 10445 10437 10428 10420 10409 10398 10388 10377 10364 10350 10335 10321 10306 10290 10275 10258 10242 10222 10205
10420 10422 10432 10433 10442 10481 10491 10478 10483 10482 10479 10475 10467 10468 10474 10476 10477 10475 10472 10465 10461 10455 10450 10444 10439 10433 10425 10416 10409 10397 10387 10376 10367 10354 10342 10328 10313 10299 10283 10268 10251 10234 10217 10200
10385 10411 10406 10408 10433 10451 10468 10468 10463 10459 10460 10451 10455 10459 10458 10460 10459 10458 10456 10450 10446 10440 10436 10430 10425 10420 10412 10404 10396 10385 10375 10367 10355 10344 10332 10320 10305 10292 10275 10260 10243 10227 10209 10192
10372 10379 10382 10384 10428 10433 10435 10442 10443 10435 10431 10434 10440 10442 10445 10447 10446 10445 10441 10435 10431 10426 10422 10418 10412 10406 10399 10391 10382 10373 10364 10355 10344 10332 10320 10308 10296 10283 10267 10251 10236 10220 10201 10183
10347 10351 10373 10375 10408 10414 10419 10409 10407 10406 10411 10419 10421 10425 10426 10428 10429 10427 10423 10420 10415 10412 10408 10404 10397 10392 10385 10376 10368 10358 10351 10342 10331 10320 10309 10297 10285 10274 10258 10243 10227 10213 10195 10177
10340 10347 10341 10369 10373 10374 10385 10384 10383 10388 10395 10397 10400 10405 10408 10410 10409 10408 10405 10402 10399 10396 10393 10388 10383 10378 10371 10361 10352 10344 10337 10327 10317 10306 10296 10285 10274 10262 10248 10234 10219 10204 10188 10171